Location: Trois-Rivi�res
(46.3500°N, 72.5500°W)
Time: 13:54:26
(UTC-05:00)

Envisat - Pass Details

Date: 08 October 2017
Orbit: 764 x 766 km, 98.2° (Epoch: 13 December)

Event Time Altitude Azimuth Distance (km) Brightness Sun altitude
Exits shadow 20:41:28 53° 185° (S) 943 3.3 -25.6°
Maximum altitude 20:42:41 77° 257° (WSW) 791 3.0 -25.8°
Drops below altitude 10° 20:47:47 10° 344° (NNW) 2,316 5.9 -26.6°
Sets 20:50:07 0° 346° (NNW) 3,247 6.7 -27.0°
